Flag for U.S.A. Weather past 2 weeks in Gainesville, Florida, U.S.A.

Now
89 °F

Passing clouds.


Feels Like: 99 °F
Forecast: 75 / 89 °F
Wind: 17 mph from West

Location: Gainesville Regional Airport

Current Time: Jul 28, 2014 at 12:37:58 PM

Latest Report: Jul 28, 2014 at 11:53 AM


Visibility: 10 mi

Pressure: 30.01 "Hg

Humidity: 63%

Dew point: 75 °F

Location of GainesvilleLocation

Historic Weather in Gainesville — Graph

°F

Gainesville temperature yesterday

Maximum temperature yesterday: 92 °F (at 2:53 PM)
Minimum temperature yesterday: 75 °F (at 6:53 AM)
Average temperature yesterday: 84 °F

Past Weeks' High & Low Weather Summary

 TemperatureHumidityPressure
High92 °F (Jul 24, 3:53 PM)100% (Jul 14, 4:53 AM)30.14 "Hg (Jul 14, 4:53 AM)
Low70 °F (Jul 17, 5:53 AM)39% (Jul 18, 3:53 PM)29.87 "Hg (Jul 16, 4:53 PM)
Average80 °F82%30.02 "Hg
* Reported Jul 13 10:01 AM — Jul 28 10:53 AM, Gainesville, Weather by CustomWeather, © 2014

Note: Actual official high and low records may vary slightly from our data, if they occured in-between our weather recording intervals... More about our weather records

Advertising

Gainesville weather history for previous 24 hours

 ConditionsComfort  
Time TempWeatherWind HumidityBarometerVisibility
10:53 AM
Jul 28
87 °FSunny.16 mph69%30.02 "Hg10 mi
9:53 AM84 °FSunny.12 mph77%30.02 "Hg10 mi
8:53 AM82 °FSunny.10 mph82%30.02 "Hg10 mi
7:53 AM79 °FSunny.6 mph90%30.02 "Hg9 mi
6:53 AM77 °FClear.7 mph94%30.02 "Hg7 mi
5:53 AM77 °FClear.6 mph96%30.01 "Hg9 mi
4:53 AM77 °FPassing clouds.6 mph96%29.99 "Hg10 mi
3:53 AM78 °FClear.8 mph93%29.99 "Hg10 mi
2:53 AM79 °FClear.9 mph90%29.98 "Hg10 mi
1:53 AM79 °FClear.8 mph90%30.00 "Hg10 mi
12:53 AM80 °FClear.7 mph87%30.01 "Hg10 mi
11:53 PM
Jul 27
81 °FClear.9 mph85%30.03 "Hg10 mi
10:53 PM81 °FClear.9 mph85%30.04 "Hg10 mi
9:53 PM83 °FClear.14 mph77%30.03 "Hg10 mi
8:53 PM84 °FSunny.17 mph72%30.01 "Hg10 mi
7:53 PM86 °FSunny.15 mph65%30.01 "Hg10 mi
6:53 PM89 °FSunny.18 mph57%30.00 "Hg10 mi
5:53 PM91 °FPassing clouds.17 mph56%29.99 "Hg10 mi
4:53 PM91 °FPassing clouds.18 mph60%30.00 "Hg10 mi
3:53 PM91 °FPartly sunny.18 mph60%30.01 "Hg10 mi
2:53 PM92 °FPassing clouds.17 mph56%30.03 "Hg10 mi
1:53 PM91 °FPartly sunny.14 mph61%30.05 "Hg10 mi
1:00 PM90 °FPartly sunny.8 mph63%30.07 "Hg10 mi
12:03 PM88 °FPartly sunny.16 mph67%30.09 "Hg10 mi
Weather by CustomWeather, © 2014

See weather overviewHow to use our weather pages